sat.trackr.live / text

‹ back to catalog

STARLINK-3419

NORAD 51463 · 2022-010H

PAYLOAD ACTIVE UNKNOWN

§ Identity

Operator
Country
US
Launch date
2022-02-03
Launch site
AFETR
Launch vehicle
Mass (kg)
RCS (m²)

Purposes: comms

External: N2YO · Heavens-Above · Gunter

§ Orbital elements

Epoch: 2026-09-20T02:18:37.181088Z

Period
94.01 min
Inclination
53.1586°
Eccentricity
0.0001297
Mean motion
15.31697209 rev/d
Perigee alt
469.9 km
Apogee alt
471.6 km
Semi-major
6,848.9 km
B*
-7.4556e-6
RAAN
111.0998°
Arg perigee
77.7091°
Mean anomaly
282.4056°
Rev number
25,607

§ Raw data

STARLINK-34191 51463U 22010H   26263.09626367 -.00000596  00000+0 -74556-5 0  99952 51463  53.1586 111.0998 0001297  77.7091 282.4056 15.31697209256078

JSON: /api/v1/satellites/51463 · /tle

For live sub-satellite position, see the globe view (requires WebGL).

§ Visibility from observer

Set your observer location to see the next 7 days of passes ≥ 10°. The values pass through the URL so the page stays shareable.

No JS? Fill the form by hand. The geolocation button needs JavaScript.